• Join FlightAware (Why Join?)
  • Login
  • US Flag 
01:12PM EST


 

Airport Tracker/Info


-or-


 

Live Flight TrackerFlight Track Log ✈ SWA1718 ✈ 24-Apr-2013 ✈ KDAL - KAMA

Flight Track Log - Related Links

Times and Time Zones

All times are in EDT time to prevent confusion due to time zone crossing. See the SWA1718 flight status page for this flight to view local times or setup timezone preferences in your user account.

Time Position Orientation Groundspeed Altitude Reporting Facility
EDT Latitude Longitude Course Direction KTS MPH feet Rate Location/Type
03:28PM 32.8833 -96.9000 320° Northwest 190 219 2,600  Level Dallas / Fort Worth TRACON
03:29PM 32.9333 -96.9500 320° Northwest 247 284 5,700 3,124 Climbing Dallas / Fort Worth TRACON
03:30PM 32.9833 -97.0167 312° West 282 325 8,900 3,174 Climbing Dallas / Fort Worth TRACON
03:31PM 33.0333 -97.0667 320° Northwest 276 318 12,100 2,132 Climbing Dallas / Fort Worth TRACON
03:32PM 33.0667 -97.1667 292° West 329 379 13,200 2,057 Climbing Dallas / Fort Worth TRACON
03:33PM 33.0692 -97.2447 272° West 347 399 15,700 2,538 Climbing Fort Worth Center
03:34PM 33.0733 -97.3614 272° West 352 405 17,600 2,000 Climbing Fort Worth Center
03:35PM 33.0797 -97.4778 274° West 352 405 19,700 1,950 Climbing Fort Worth Center
03:36PM 33.0836 -97.5994 272° West 363 418 21,500 1,750 Climbing Fort Worth Center
03:37PM 33.0917 -97.7283 274° West 383 441 23,200 1,650 Climbing Fort Worth Center
03:38PM 33.1289 -97.8525 290° West 397 457 24,800 1,850 Climbing Fort Worth Center
03:39PM 33.1681 -97.9767 291° West 397 457 26,900 2,150 Climbing Fort Worth Center
03:40PM 33.2053 -98.0936 291° West 391 450 29,100 1,850 Climbing Fort Worth Center
03:41PM 33.2400 -98.2083 290° West 380 437 30,600 1,400 Climbing Fort Worth Center
03:42PM 33.2767 -98.3228 291° West 380 437 31,900 1,350 Climbing Fort Worth Center
03:43PM 33.3114 -98.4300 291° West 359 413 33,300 1,050 Climbing Fort Worth Center
03:44PM 33.3439 -98.5400 290° West 354 407 34,000 350 Climbing Fort Worth Center
03:45PM 33.3803 -98.6547 291° West 354 407 34,000  Level Fort Worth Center
03:46PM 33.4231 -98.7600 296° West 354 407 34,000  Level Fort Worth Center
03:47PM 33.4867 -98.8556 309° West 359 413 34,000  Level Fort Worth Center
03:48PM 33.5461 -98.9536 306° West 364 419 34,000  Level Fort Worth Center
03:49PM 33.6011 -99.0469 305° West 374 430 34,000  Level Fort Worth Center
03:50PM 33.6667 -99.1506 307° West 367 422 34,000  Level Fort Worth Center
03:51PM 33.7278 -99.2492 307° West 362 417 34,000  Level Fort Worth Center
03:52PM 33.7869 -99.3478 306° West 362 417 34,000  Level Fort Worth Center
03:53PM 33.8478 -99.4467 307° West 362 417 34,000  Level Fort Worth Center
03:54PM 33.9089 -99.5483 306° West 368 423 34,000  Level Fort Worth Center
03:55PM 33.9675 -99.6475 305° West 368 423 34,000  Level Fort Worth Center
03:56PM 34.0283 -99.7467 307° West 368 423 34,000  Level Fort Worth Center
03:57PM 34.0869 -99.8436 306° West 362 417 34,000  Level Fort Worth Center
03:58PM 34.1478 -99.9456 306° West 362 417 34,000  Level Fort Worth Center
03:59PM 34.2042 -100.0403 306° West 362 417 34,000  Level Fort Worth Center
04:00PM 34.2625 -100.1350 307° West 362 417 34,000 -630 Level Fort Worth Center
04:02PM 34.3961 -100.3575 306° West 360 414 31,900 -1,188 Descending Albuquerque Center
04:03PM 34.4564 -100.4586 306° West 364 419 30,000 -2,032 Descending Albuquerque Center
04:04PM 34.5153 -100.5578 306° West 365 420 27,700 -2,244 Descending Albuquerque Center
04:05PM 34.5686 -100.6550 304° West 353 406 25,400 -2,439 Descending Albuquerque Center
04:06PM 34.6333 -100.7658 305° West 340 391 22,700 -2,323 Descending Albuquerque Center
04:07PM 34.6861 -100.8547 306° West 331 381 20,600 -2,081 Descending Albuquerque Center
04:09PM 34.7381 -100.9433 306° West 325 374 18,400 -1,984 Descending Albuquerque Center
04:10PM 34.7892 -101.0317 305° West 320 368 16,500 -1,935 Descending Albuquerque Center
04:11PM 34.8394 -101.1175 306° West 315 362 14,400 -1,984 Descending Albuquerque Center
04:12PM 34.8878 -101.2006 305° West 306 352 12,400 -1,984 Descending Albuquerque Center
04:13PM 34.9433 -101.2969 305° West 294 338 10,300 -1,452 Descending Albuquerque Center
04:14PM 34.9856 -101.3703 305° West 280 322 9,400 -677 Descending Albuquerque Center
04:15PM 35.0258 -101.4419 304° West 265 305 8,900 -968 Descending Albuquerque Center
04:16PM 35.0703 -101.5189 305° West 269 310 7,400 -1,113 Descending Albuquerque Center
04:17PM 35.1253 -101.5794 318° Northwest 268 308 6,600 -726 Descending Albuquerque Center
04:18PM 35.1711 -101.6281 319° Northwest 239 275 5,900 -1,113 Descending Albuquerque Center
04:19PM 35.2067 -101.6692 317° Northwest 203 234 4,300 97 Descending Albuquerque Center
04:20PM 35.2503 -101.7189 317° Northwest 200 230 6,100 774 Climbing Albuquerque Center
04:21PM 35.3100 -101.7050 11° North 238 274 5,900 -581 Descending Albuquerque Center
04:22PM 35.2761 -101.6578 131° Southeast 207 238 4,900 -968 Descending Albuquerque Center
04:23PM 35.2378 -101.6914 216° Southwest 165 190 3,900 -576 Descending Albuquerque Center
04:24PM 35.2197 -101.7128 224° Southwest 111 128 3,700 -190 Descending Albuquerque Center